Flag for Canada Weather past 2 weeks in Haldimand, Ontario, Canada

Now
72 °F

Passing clouds.


Feels Like: 77 °F
Forecast: 60 / 72 °F
Wind: 5 mph from West

Location: Hamilton Airport

Current Time: Jul 24, 2014 at 7:33:17 PM

Latest Report: Jul 24, 2014 at 7:00 PM


Visibility: 15 mi

Pressure: 30.00 "Hg

Humidity: 47%

Dew point: 50 °F

Location of HaldimandLocation

Historic Weather in Haldimand — Graph

°F

Haldimand temperature yesterday

Maximum temperature yesterday: 75 °F (at 2:00 AM)
Minimum temperature yesterday: 59 °F (at 11:00 PM)
Average temperature yesterday: 69 °F

Past Weeks' High & Low Weather Summary

 TemperatureHumidityPressure
High82 °F (Jul 21, 4:00 PM)100% (Jul 15, 4:00 AM)30.25 "Hg (Jul 15, 4:00 AM)
Low48 °F (Jul 17, 5:00 AM)38% (Jul 17, 4:00 PM)29.66 "Hg (Jul 15, 10:00 AM)
Average66 °F75%30.02 "Hg
* Reported Jul 9 6:00 PM — Jul 24 6:00 PM, Haldimand, Weather by CustomWeather, © 2014

Note: Actual official high and low records may vary slightly from our data, if they occured in-between our weather recording intervals... More about our weather records

Advertising

Haldimand weather history for previous 24 hours

 ConditionsComfort  
Time TempWeatherWind HumidityBarometerVisibility
6:00 PM
Jul 24
73 °FPassing clouds.6 mph41%30.01 "Hg15 mi
5:00 PM73 °FPassing clouds.No wind41%30.02 "Hg15 mi
4:00 PM72 °FPassing clouds.2 mph44%30.04 "Hg15 mi
3:00 PM70 °FPassing clouds.2 mph43%30.05 "Hg15 mi
2:00 PM70 °FPassing clouds.7 mph46%30.06 "Hg15 mi
1:00 PM68 °FPassing clouds.6 mph49%30.07 "Hg12 mi
12:00 PM66 °FScattered clouds.7 mph49%30.09 "Hg15 mi
11:00 AM64 °FScattered clouds.7 mph60%30.08 "Hg15 mi
10:00 AM64 °FPassing clouds.10 mph56%30.08 "Hg15 mi
9:00 AM63 °FPassing clouds.9 mph64%30.08 "Hg15 mi
8:00 AM61 °FPassing clouds.8 mph68%30.07 "Hg15 mi
7:00 AM57 °FPartly cloudy.8 mph72%30.06 "Hg15 mi
6:00 AM57 °FPartly cloudy.9 mph72%30.04 "Hg15 mi
5:00 AM57 °FPassing clouds.8 mph77%30.03 "Hg15 mi
4:00 AM57 °FPassing clouds.7 mph77%30.02 "Hg15 mi
3:00 AM57 °FPassing clouds.8 mph77%30.01 "Hg15 mi
2:00 AM57 °FPassing clouds.7 mph82%30.01 "Hg15 mi
1:00 AM57 °FPassing clouds.8 mph82%30.02 "Hg15 mi
12:00 AM57 °FClear.5 mph82%30.02 "Hg15 mi
11:00 PM
Jul 23
59 °FPassing clouds.3 mph82%30.02 "Hg15 mi
10:00 PM61 °FPassing clouds.5 mph77%30.02 "Hg15 mi
9:00 PM63 °FScattered clouds.6 mph73%30.01 "Hg15 mi
8:00 PM64 °FScattered showers. Partly sunny.12 mph68%30.00 "Hg15 mi
7:00 PM64 °FPartly sunny.13 mph68%29.98 "Hg15 mi
Weather by CustomWeather, © 2014

See weather overviewHow to use our weather pages